Tracking 27420 objects as of 10-Jun-2023
HD Live streaming from Space Station
objects crossing your sky now

FLOCK 4V 18

Track FLOCK 4V 18 now!
10-day predictions
FLOCK 4V 18 is classified as:


NORAD ID: 46597
Int'l Code: 2020-061BG
Perigee: 451.2 km
Apogee: 455.2 km
Inclination: 97.4 °
Period: 93.5 minutes
Semi major axis: 6824 km
RCS: Unknown
Launch date: September 3, 2020
Source: United States (US)
Launch site: FRENCH GUIANA (FRGUI)
Your satellite tracking list
Your tracking list is empty




NASA's NSSDC Master Catalog

Two Line Element Set (TLE):
1 46597U 20061BG  23160.97997349  .00023881  00000-0  59935-3 0  9995
2 46597  97.3581 234.1960 0002953 305.8446  54.2525 15.40006847148416
Source of the keplerian elements: AFSPC